Weather History for KVNC - June, 2014

Change the Weather History Date:

Sunday, June 22, 2014

  Actual Average Record
Temperature  
Mean Temperature 83 °F -  
Max Temperature 86 °F 89 °F 96 °F (1979)
Min Temperature 80 °F 72 °F 65 °F (1975)
Cooling Degree Days 18    
Growing Degree Days 33 (Base 50)    
Moisture  
Dew Point 73 °F    
Average Humidity 73    
Maximum Humidity 79    
Minimum Humidity 62    
Precipitation  
Precipitation 0.00 in - - ()
Sea Level Pressure  
Sea Level Pressure 29.99 in    
Wind  
Wind Speed 8 mph (West)    
Max Wind Speed 13 mph    
Max Gust Speed 17 mph    
Visibility 10 miles    
Events      
Averages and records for this station are not official NWS values.
T = Trace of Precipitation, MM = Missing Value Source: NWS Daily Summary

Daily Weather History Graph

Daily Weather History Graph

Search for Another Location

Airport or City:

Trip Planner

Search our weather history database for the weather conditions in past years. The results will help you decide how hot, cold, wet, or windy it might be!

Date:

Astronomy

Jun. 22, 2014 Rise Set
Actual Time 6:36 AM EDT 8:27 PM EDT
Civil Twilight 6:09 AM EDT 8:53 PM EDT
Nautical Twilight 5:38 AM EDT 9:25 PM EDT
Astronomical Twilight 5:04 AM EDT 9:59 PM EDT
Moon 3:04 AM EDT (6/22) 4:23 PM EDT (6/22)
Length of Visible Light 14h 43m
Length of Day
13h 50m
Waning Crescent, 21% of the Moon is Illuminated
Jun 22
Waning Crescent
Jun 27
New
Jul 5
First Quarter
Jul 12
Full
Jul 18
Last Quarter

Hourly Weather History & Observations

Time (EDT) Temp. Heat Index Dew Point Humidity Pressure Visibility Wind Dir Wind Speed Gust Speed Precip Events Conditions
12:15 AM 80.6 °F 84.6 °F 71.6 °F 74% 30.01 in 10.0 mi West 5.8 mph - N/A   Partly Cloudy
12:35 AM 80.6 °F 84.6 °F 71.6 °F 74% 30.00 in 10.0 mi West 6.9 mph - N/A   Clear
12:55 AM 80.6 °F 84.6 °F 71.6 °F 74% 29.99 in 10.0 mi WSW 9.2 mph - N/A   Clear
1:15 AM 80.6 °F 84.6 °F 71.6 °F 74% 29.98 in 10.0 mi WSW 8.1 mph - N/A   Clear
1:35 AM 80.6 °F 85.4 °F 73.4 °F 79% 29.98 in 10.0 mi WSW 8.1 mph - N/A   Clear
1:55 AM 80.6 °F 84.6 °F 71.6 °F 74% 29.97 in 10.0 mi SW 5.8 mph - N/A   Clear
2:15 AM 80.6 °F 85.4 °F 73.4 °F 79% 29.97 in 10.0 mi WSW 6.9 mph - N/A   Partly Cloudy
2:35 AM 80.6 °F 85.4 °F 73.4 °F 79% 29.96 in 10.0 mi WSW 6.9 mph - N/A   Partly Cloudy
2:55 AM 80.6 °F 85.4 °F 73.4 °F 79% 29.97 in 10.0 mi WSW 6.9 mph - N/A   Partly Cloudy
3:15 AM 80.6 °F 85.4 °F 73.4 °F 79% 29.96 in 10.0 mi WSW 5.8 mph - N/A   Scattered Clouds
3:35 AM 80.6 °F 85.4 °F 73.4 °F 79% 29.97 in 10.0 mi WSW 8.1 mph - N/A   Scattered Clouds
3:55 AM 80.6 °F 85.4 °F 73.4 °F 79% 29.97 in 10.0 mi WSW 9.2 mph - N/A   Scattered Clouds
4:15 AM 80.6 °F 85.4 °F 73.4 °F 79% 29.96 in 10.0 mi WSW 6.9 mph - N/A   Partly Cloudy
4:35 AM 80.6 °F 85.4 °F 73.4 °F 79% 29.97 in 10.0 mi West 6.9 mph - N/A   Scattered Clouds
4:55 AM 80.6 °F 85.4 °F 73.4 °F 79% 29.96 in 10.0 mi WSW 6.9 mph - N/A   Partly Cloudy
5:15 AM 80.6 °F 84.6 °F 71.6 °F 74% 29.97 in 10.0 mi West 8.1 mph - N/A   Partly Cloudy
5:35 AM 80.6 °F 84.6 °F 71.6 °F 74% 29.97 in 10.0 mi WSW 6.9 mph - N/A   Clear
5:55 AM 80.6 °F 85.4 °F 73.4 °F 79% 29.97 in 10.0 mi West 8.1 mph - N/A   Clear
6:15 AM 80.6 °F 84.6 °F 71.6 °F 74% 29.97 in 10.0 mi WSW 6.9 mph - N/A   Clear
6:35 AM 80.6 °F 84.6 °F 71.6 °F 74% 29.97 in 10.0 mi WSW 9.2 mph - N/A   Clear
6:55 AM 80.6 °F 85.4 °F 73.4 °F 79% 29.98 in 10.0 mi WSW 9.2 mph - N/A   Partly Cloudy
7:15 AM 80.6 °F 85.4 °F 73.4 °F 79% 29.99 in 10.0 mi West 11.5 mph - N/A   Scattered Clouds
7:35 AM 80.6 °F 85.4 °F 73.4 °F 79% 30.00 in 10.0 mi WSW 8.1 mph - N/A   Partly Cloudy
7:55 AM 82.4 °F 88.2 °F 73.4 °F 74% 30.00 in 10.0 mi West 9.2 mph - N/A   Partly Cloudy
8:15 AM 82.4 °F 88.2 °F 73.4 °F 74% 30.00 in 10.0 mi West 10.4 mph - N/A   Partly Cloudy
8:35 AM 82.4 °F 88.2 °F 73.4 °F 74% 30.01 in 10.0 mi West 10.4 mph - N/A   Partly Cloudy
8:55 AM 84.2 °F 90.9 °F 73.4 °F 70% 30.02 in 10.0 mi West 11.5 mph - N/A   Partly Cloudy
9:15 AM 84.2 °F 90.9 °F 73.4 °F 70% 30.02 in 10.0 mi West 10.4 mph - N/A   Partly Cloudy
9:55 AM 84.2 °F 90.9 °F 73.4 °F 70% 30.02 in 10.0 mi West 10.4 mph - N/A   Scattered Clouds
10:15 AM 84.2 °F 90.9 °F 73.4 °F 70% 30.02 in 10.0 mi West 10.4 mph - N/A   Scattered Clouds
10:35 AM 84.2 °F 90.9 °F 73.4 °F 70% 30.02 in 10.0 mi WNW 10.4 mph - N/A   Clear
10:55 AM 84.2 °F 90.9 °F 73.4 °F 70% 30.02 in 10.0 mi West 11.5 mph - N/A   Clear
11:15 AM 84.2 °F 90.9 °F 73.4 °F 70% 30.03 in 10.0 mi West 12.7 mph 17.3 mph N/A   Partly Cloudy
11:35 AM 84.2 °F 90.9 °F 73.4 °F 70% 30.03 in 10.0 mi WNW 11.5 mph - N/A   Partly Cloudy
12:15 PM 84.2 °F 90.9 °F 73.4 °F 70% 30.02 in 10.0 mi West 12.7 mph - N/A   Partly Cloudy
12:35 PM 86.0 °F 93.4 °F 73.4 °F 66% 30.02 in 10.0 mi West 9.2 mph - N/A   Partly Cloudy
12:55 PM 86.0 °F 93.4 °F 73.4 °F 66% 30.02 in 10.0 mi West 10.4 mph 16.1 mph N/A   Partly Cloudy
1:15 PM 84.2 °F 90.9 °F 73.4 °F 70% 30.02 in 10.0 mi West 11.5 mph - N/A   Partly Cloudy
1:35 PM 86.0 °F 93.4 °F 73.4 °F 66% 30.01 in 10.0 mi West 10.4 mph - N/A   Clear
1:55 PM 86.0 °F 95.1 °F 75.2 °F 70% 30.01 in 10.0 mi West 11.5 mph - N/A   Partly Cloudy
2:15 PM 86.0 °F 93.4 °F 73.4 °F 66% 30.00 in 10.0 mi West 10.4 mph - N/A   Partly Cloudy
2:35 PM 86.0 °F 91.8 °F 71.6 °F 62% 30.00 in 10.0 mi West 10.4 mph - N/A   Clear
2:55 PM 86.0 °F 93.4 °F 73.4 °F 66% 30.00 in 10.0 mi WSW 10.4 mph - N/A   Clear
3:15 PM 86.0 °F 91.8 °F 71.6 °F 62% 29.99 in 10.0 mi West 11.5 mph - N/A   Clear
3:35 PM 86.0 °F 93.4 °F 73.4 °F 66% 29.98 in 10.0 mi WNW 11.5 mph - N/A   Clear
3:55 PM 86.0 °F 91.8 °F 71.6 °F 62% 29.97 in 10.0 mi West 8.1 mph - N/A   Clear
4:15 PM 86.0 °F 93.4 °F 73.4 °F 66% 29.96 in 10.0 mi West 9.2 mph - N/A   Clear
4:35 PM 84.2 °F 89.6 °F 71.6 °F 66% 29.96 in 10.0 mi WNW 11.5 mph - N/A   Clear
4:55 PM 84.2 °F 90.9 °F 73.4 °F 70% 29.95 in 10.0 mi West 10.4 mph - N/A   Clear
5:15 PM 84.2 °F 90.9 °F 73.4 °F 70% 29.94 in 10.0 mi West 10.4 mph - N/A   Clear
5:35 PM 84.2 °F 90.9 °F 73.4 °F 70% 29.94 in 10.0 mi WNW 9.2 mph - N/A   Clear
5:55 PM 84.2 °F 90.9 °F 73.4 °F 70% 29.94 in 10.0 mi West 9.2 mph - N/A   Clear
6:15 PM 84.2 °F 90.9 °F 73.4 °F 70% 29.94 in 10.0 mi West 9.2 mph - N/A   Clear
6:35 PM 84.2 °F 90.9 °F 73.4 °F 70% 29.93 in 10.0 mi West 8.1 mph - N/A   Clear
6:55 PM 84.2 °F 90.9 °F 73.4 °F 70% 29.94 in 10.0 mi West 6.9 mph - N/A   Clear
7:15 PM 82.4 °F 88.2 °F 73.4 °F 74% 29.95 in 10.0 mi West 6.9 mph - N/A   Clear
7:35 PM 82.4 °F 87.2 °F 71.6 °F 70% 29.96 in 10.0 mi West 6.9 mph - N/A   Clear
7:55 PM 82.4 °F 88.2 °F 73.4 °F 74% 29.97 in 10.0 mi WSW 6.9 mph - N/A   Clear
8:15 PM 82.4 °F 88.2 °F 73.4 °F 74% 29.98 in 10.0 mi WSW 5.8 mph - N/A   Clear
8:35 PM 80.6 °F 85.4 °F 73.4 °F 79% 29.99 in 10.0 mi SW 5.8 mph - N/A   Partly Cloudy
8:55 PM 82.4 °F 88.2 °F 73.4 °F 74% 30.00 in 10.0 mi SW 8.1 mph - N/A   Partly Cloudy
9:15 PM 82.4 °F 88.2 °F 73.4 °F 74% 30.00 in 10.0 mi SW 6.9 mph - N/A   Partly Cloudy
9:35 PM 82.4 °F 88.2 °F 73.4 °F 74% 30.00 in 10.0 mi SW 8.1 mph - N/A   Partly Cloudy
9:55 PM 82.4 °F 88.2 °F 73.4 °F 74% 30.00 in 10.0 mi SW 8.1 mph - N/A   Mostly Cloudy
10:35 PM 80.6 °F 85.4 °F 73.4 °F 79% 30.00 in 10.0 mi WSW 9.2 mph - N/A   Clear
10:55 PM 80.6 °F 85.4 °F 73.4 °F 79% 30.01 in 10.0 mi WSW 6.9 mph - N/A   Clear
11:15 PM 80.6 °F 85.4 °F 73.4 °F 79% 30.02 in 10.0 mi SW 6.9 mph - N/A   Partly Cloudy
11:35 PM 82.4 °F 88.2 °F 73.4 °F 74% 30.02 in 10.0 mi SW 6.9 mph - N/A   Clear